Wind_Speed
5 5 10 15 18 21 21 20 19 20 20 21 20 17 15 14 13 13 13 13 13 12 12 12 11 11 11 10 10 10 9 9 8 8 9 7 7 9 7 6 9 10 9 9 9 9 9 9 10 12 12 13 13 12 11 12 13 14 14 13 14 15 14 13 12 12 14 19 22 21 20 21 21 20 18 17 17 15 13 13 12 11 10 10 9
8 7 10 14 17 21 21 21 21 21 21 21 20 18 18 17 15 13 13 12 12 12 12 12 11 10 11 10 10 10 9 9 9 8 8 7 8 7 6 7 11 11 9 10 10 9 9 9 11 12 12 13 13 11 10 11 12 14 16 15 16 17 16 15 16 14 14 19 22 21 21 21 21 20 19 18 18 17 16 14 13 11 10 10 8
13 13 14 15 18 21 20 20 22 22 22 21 20 19 19 18 17 15 13 13 13 12 12 12 10 10 10 10 10 10 10 10 9 8 8 9 8 6 6 10 12 10 9 10 10 10 10 11 11 12 12 12 11 10 10 10 10 12 13 16 18 18 19 18 19 17 16 17 20 21 21 19 19 21 20 19 19 18 17 15 13 14 13 12 10
15 16 17 17 20 22 20 19 22 23 22 20 19 18 17 17 15 14 14 14 13 13 13 11 10 9 10 10 10 10 11 10 8 8 9 8 7 7 8 10 10 8 9 10 10 11 12 11 11 11 11 10 8 9 9 7 5 7 11 11 11 13 19 20 19 18 17 16 16 19 21 18 16 21 22 19 19 19 17 15 14 17 19 17 13
18 16 17 19 21 22 20 20 22 22 19 18 19 17 16 16 14 14 14 14 13 13 12 10 9 9 9 10 10 10 11 10 9 9 9 8 8 8 9 9 8 7 9 11 10 11 11 12 12 11 9 7 6 7 7 4 3 6 12 11 6 8 14 17 18 19 17 16 16 16 20 18 16 19 23 20 20 19 19 17 15 18 24 21 15
18 17 19 22 23 23 22 22 23 20 17 17 18 17 16 15 14 13 14 14 13 13 12 10 10 9 9 10 10 10 10 10 10 10 9 8 8 9 9 8 7 8 10 10 10 9 9 10 11 11 9 6 5 6 5 3 1 3 8 9 8 9 9 9 16 20 17 16 16 14 19 20 17 18 22 22 21 20 20 19 17 19 25 23 16
16 18 20 23 24 23 23 23 22 19 17 17 18 16 16 15 14 13 13 13 13 12 11 10 10 9 10 10 10 10 10 10 10 10 10 9 8 9 9 7 8 8 8 8 9 8 8 9 9 10 8 6 6 5 3 2 1 2 3 3 6 10 9 6 10 17 17 17 17 14 17 21 19 17 19 22 23 21 21 22 19 19 23 23 20
15 17 19 21 21 20 20 22 20 17 18 18 17 16 15 14 14 14 13 13 12 11 12 11 9 9 10 10 11 10 10 10 10 10 10 10 8 9 8 7 8 7 5 7 8 6 7 8 7 8 8 7 7 5 3 3 2 1 1 1 1 5 8 7 7 10 15 17 18 16 16 19 20 18 16 19 23 23 22 23 21 20 21 21 19
16 16 18 19 19 17 18 19 18 17 18 17 15 16 14 12 14 14 12 12 11 11 12 11 10 10 10 11 12 10 9 11 10 8 10 11 9 9 8 7 7 6 4 7 6 4 6 7 6 5 6 6 7 7 6 5 5 3 2 3 4 4 5 7 9 8 9 12 16 18 16 17 20 20 19 19 21 23 23 23 22 21 20 19 17
16 16 18 18 19 20 19 18 17 17 17 16 14 16 13 10 13 13 11 12 11 10 12 11 10 10 10 12 13 10 9 10 8 7 9 10 10 9 7 6 7 5 3 5 5 3 5 8 8 7 5 4 2 2 4 4 4 4 4 4 5 5 6 8 10 10 10 9 9 14 16 17 20 22 22 22 21 21 23 23 21 22 20 19 18
17 17 18 18 19 20 19 19 19 18 17 16 15 15 12 10 12 12 11 11 10 9 11 11 9 9 11 13 13 11 8 7 7 7 9 9 10 9 6 5 5 4 3 3 3 3 3 3 3 4 4 3 4 4 3 4 5 6 6 6 6 6 6 8 9 8 8 9 9 8 9 12 16 20 23 25 24 22 24 24 21 21 22 20 18
17 18 18 18 17 16 17 18 19 19 18 17 16 15 13 12 12 12 11 10 9 8 9 11 9 7 10 12 11 9 5 4 4 6 7 9 9 8 6 4 3 3 4 4 6 7 7 4 1 3 5 3 2 3 4 5 6 8 8 9 10 10 9 10 11 11 10 10 11 11 12 11 11 12 15 20 23 23 24 26 23 22 23 21 19
16 18 18 18 17 16 16 16 16 17 18 17 17 16 15 14 14 14 13 11 10 8 8 10 8 5 9 12 10 6 4 3 2 4 4 5 6 5 4 5 4 3 2 2 3 6 7 6 3 4 7 6 4 4 4 5 6 9 10 10 11 12 14 14 15 16 16 15 15 15 16 16 16 16 15 14 17 18 20 24 25 24 23 23 21
15 14 15 16 16 15 16 17 17 17 17 16 16 16 14 14 15 15 13 13 13 11 11 12 10 8 10 14 12 9 7 5 4 3 3 2 2 2 2 3 5 6 3 2 3 3 4 5 4 5 8 7 7 8 8 7 8 9 12 14 13 11 12 15 17 18 19 19 19 18 17 17 19 22 23 21 20 20 21 23 20 17 18 19 21
20 18 15 13 14 15 16 17 17 18 18 16 15 14 11 10 12 13 11 11 12 12 11 11 11 13 14 14 13 11 9 7 5 3 2 1 1 0 1 2 3 4 5 4 5 4 4 6 5 5 6 7 8 10 11 11 11 10 11 16 16 12 11 13 15 16 17 18 19 18 17 16 16 19 21 22 22 24 26 25 20 17 15 12 14
23 23 21 16 12 14 15 15 16 17 18 16 16 16 14 12 11 12 11 9 9 10 10 9 9 11 12 11 11 10 8 6 5 3 2 1 0 1 1 1 2 3 4 4 6 7 6 5 5 5 6 7 8 9 12 13 13 13 12 15 16 14 13 14 14 15 16 16 17 17 17 17 16 16 15 16 18 21 24 23 23 23 19 11 9
23 22 23 21 15 12 14 14 14 14 15 15 15 15 14 12 11 11 11 10 9 9 10 9 8 8 8 7 6 6 5 4 3 2 1 1 1 1 1 1 3 4 4 4 4 5 4 1 4 6 9 10 10 10 11 12 13 14 14 15 17 15 14 15 17 16 16 17 18 18 19 20 20 19 18 17 17 19 21 21 20 21 19 13 11
21 20 21 21 19 17 16 15 13 13 14 14 14 14 13 12 11 10 10 11 10 10 11 11 9 8 9 8 6 5 4 3 1 1 2 3 3 3 2 2 4 5 5 5 5 6 6 5 6 8 10 11 12 12 11 11 12 12 12 15 17 15 12 14 17 19 19 18 19 19 20 20 19 19 19 18 18 18 19 17 14 12 14 13 12
21 20 21 21 21 20 19 18 17 16 15 14 14 14 13 12 11 10 11 11 11 11 12 12 11 10 9 9 7 5 4 3 1 2 4 4 4 4 3 3 5 6 5 5 5 5 7 9 9 9 9 8 8 9 10 11 11 12 13 16 17 16 14 15 18 19 19 18 18 18 18 16 16 16 16 15 15 17 17 15 13 12 14 14 12
21 22 22 22 22 21 19 18 18 18 17 15 13 11 11 12 12 12 11 12 13 12 10 10 11 11 9 7 5 4 3 2 2 2 3 4 3 3 2 2 3 4 5 6 7 7 8 9 8 5 4 4 4 6 9 10 12 13 14 16 17 17 16 16 17 18 17 16 16 16 16 15 14 15 15 13 13 14 15 16 16 17 17 16 14
21 21 21 22 21 21 20 20 19 18 18 16 13 11 10 11 12 12 10 10 11 11 9 8 8 8 7 5 4 2 1 2 2 2 2 1 1 1 1 2 4 4 5 8 10 9 6 4 4 3 2 2 4 7 10 12 14 14 14 15 16 17 17 16 16 17 17 16 15 14 14 14 13 13 13 14 13 12 12 13 15 17 17 15 14
20 21 21 20 20 20 20 21 21 20 19 18 16 15 12 11 11 12 11 11 11 10 10 9 8 8 8 7 6 6 6 6 4 4 4 4 4 3 3 4 6 6 5 8 11 10 7 4 4 4 4 5 8 10 12 14 15 15 15 14 15 17 17 16 16 16 15 14 14 14 14 14 13 12 12 12 12 13 13 12 12 13 12 11 11
20 21 21 20 19 19 20 20 20 20 19 18 18 17 15 13 12 11 10 11 13 13 12 10 10 11 11 10 10 11 10 9 8 8 8 7 6 6 7 7 8 8 6 7 8 8 8 8 7 8 9 10 10 12 13 14 14 14 14 14 14 14 14 14 14 14 14 13 13 14 14 13 13 12 13 13 13 14 13 11 11 11 11 10 9
22 22 21 21 19 18 18 19 19 19 18 17 17 17 16 14 13 12 11 10 10 11 11 12 12 12 12 12 12 12 10 9 10 10 9 9 10 10 10 11 11 10 8 6 7 9 11 12 12 12 13 13 13 13 13 14 14 14 14 13 12 11 10 11 13 13 14 15 16 16 15 14 14 14 15 15 14 13 11 11 10 11 11 11 10
21 22 21 20 19 17 17 18 19 19 18 17 17 17 15 14 14 15 14 13 11 9 7 8 8 9 10 11 12 12 11 12 13 12 11 11 12 12 12 12 12 12 8 5 7 10 12 13 14 14 14 14 14 14 14 14 15 16 15 13 10 8 8 10 13 13 14 16 16 14 12 12 14 15 17 17 15 12 11 10 10 9 10 10 9
20 20 20 19 19 18 18 18 18 18 17 16 17 18 17 15 15 15 15 15 13 11 10 10 10 10 10 10 12 15 16 14 12 11 10 10 10 11 12 12 12 11 9 7 9 12 13 14 15 16 14 13 13 13 14 14 15 16 17 15 11 8 8 12 14 13 12 12 11 9 9 10 13 15 17 17 15 12 10 9 9 9 10 10 10
17 17 18 17 17 17 18 17 16 17 17 15 16 18 18 16 14 14 15 15 15 15 15 15 15 14 12 12 15 17 16 14 12 10 10 10 9 9 9 9 9 9 8 8 11 13 14 15 16 15 14 12 11 13 14 13 11 14 18 18 15 12 10 12 13 13 13 12 10 10 11 11 14 16 18 17 16 13 11 10 11 12 12 12 14
13 13 13 13 13 13 14 13 12 14 17 17 16 17 17 16 15 15 15 13 14 15 15 15 16 16 14 14 16 15 15 15 15 14 12 12 11 10 9 9 9 9 10 12 12 13 14 14 13 12 11 11 10 10 10 10 9 10 13 14 15 16 13 12 13 14 14 13 12 13 12 13 17 19 19 17 15 13 11 11 12 14 13 12 12
11 10 9 9 10 9 10 10 8 8 12 16 18 18 17 15 14 16 16 14 12 12 12 12 14 14 14 14 15 14 14 15 15 14 13 13 12 11 11 11 11 10 11 11 12 11 11 11 11 10 10 10 9 8 8 10 9 9 9 10 13 15 13 12 13 14 14 14 13 14 16 17 19 19 17 15 13 12 12 12 13 13 11 10 9
9 10 10 10 10 9 9 9 8 7 9 13 17 18 18 17 17 17 17 16 13 12 11 12 13 13 12 13 14 13 13 12 11 11 11 11 11 11 11 11 11 11 11 11 11 10 10 10 11 12 11 10 12 13 13 13 11 10 9 10 11 12 13 13 13 13 16 16 11 11 15 16 17 16 14 14 15 14 12 12 12 11 10 9 9
8 9 9 10 10 9 8 9 9 8 8 10 13 16 17 17 17 17 17 16 15 14 13 12 12 11 11 11 12 11 10 10 9 9 9 9 10 10 10 10 10 10 11 11 10 9 8 9 11 13 13 14 15 15 15 14 14 13 12 12 13 13 12 11 11 12 13 13 7 7 10 10 11 11 12 13 14 12 11 11 10 9 9 8 7
9 7 7 7 8 8 8 8 9 9 7 7 10 12 13 14 14 14 14 15 15 15 15 14 12 11 10 10 10 10 9 9 8 8 8 8 8 8 8 8 7 7 9 9 9 9 10 11 14 17 17 17 16 16 15 15 15 15 15 14 15 13 9 7 8 9 7 5 4 7 8 8 10 12 13 14 13 12 12 11 9 8 8 8 7
10 9 9 8 7 7 8 8 8 8 8 8 7 8 9 11 12 12 12 13 13 14 16 15 13 11 10 10 10 9 9 9 8 7 7 7 8 7 7 7 5 4 6 7 9 11 14 15 15 16 16 16 17 17 16 16 17 18 17 15 13 12 11 10 8 5 0 4 8 10 12 13 14 15 14 13 12 11 11 10 8 7 7 6 6
9 11 12 11 9 9 10 10 9 8 7 8 9 8 6 6 9 11 12 12 12 13 13 14 15 13 11 10 9 9 10 11 11 10 9 10 11 10 9 7 4 3 5 7 10 13 14 14 13 14 14 15 15 16 16 16 16 18 18 14 11 11 12 11 6 1 6 9 11 13 14 14 14 13 12 11 9 8 7 7 7 7 7 7 6
7 9 12 11 9 9 10 9 8 7 7 8 9 10 9 8 7 8 7 7 9 12 12 13 16 17 14 10 8 8 9 11 13 13 13 14 15 14 13 12 11 10 11 11 12 13 13 12 13 13 14 15 16 16 16 15 15 16 15 13 12 13 12 7 2 3 5 8 9 10 10 10 9 8 8 8 8 8 8 7 7 6 6 6 6
12 12 10 9 9 9 9 8 7 6 7 6 6 8 8 9 10 11 11 10 7 8 13 13 14 16 14 9 7 8 8 8 11 14 14 15 16 16 16 16 16 15 16 15 14 13 12 11 11 11 12 13 14 14 15 15 14 13 13 13 12 11 8 2 2 4 4 6 7 7 7 7 7 7 7 8 8 8 7 7 7 6 5 5 5
14 13 9 6 9 9 7 7 8 8 9 10 10 10 10 9 10 12 12 12 12 9 11 12 11 14 15 11 9 11 9 6 10 15 15 14 15 16 16 16 16 16 16 16 15 14 13 13 12 10 10 11 11 11 12 12 11 10 12 12 10 6 2 2 5 5 5 6 7 7 8 8 8 7 7 8 8 8 7 7 6 5 3 2 3
10 12 8 6 10 12 8 7 9 10 10 12 12 11 10 9 11 11 10 9 11 11 10 12 13 14 15 14 12 13 12 9 11 15 15 13 14 16 15 15 15 15 15 15 15 14 14 14 13 11 10 11 11 11 12 11 9 8 10 9 5 1 3 5 6 6 7 7 7 7 8 8 9 9 9 10 9 7 5 3 2 2 2 4 4
6 8 8 7 10 11 10 9 10 9 8 8 9 9 8 8 8 9 9 10 11 12 11 13 14 13 13 13 11 13 15 14 13 15 14 13 14 14 14 13 14 13 13 13 13 13 14 14 12 9 8 8 9 10 11 11 10 8 7 5 1 2 4 5 6 6 6 6 7 7 8 9 10 10 9 8 6 3 2 2 3 4 4 6 7
5 6 7 7 7 7 8 9 8 7 7 8 8 8 8 8 8 9 10 10 9 7 8 11 14 14 12 9 8 11 13 12 12 13 13 12 12 13 13 13 13 12 13 13 12 12 12 12 11 10 9 7 6 6 7 8 8 7 6 4 2 4 3 3 4 5 5 6 7 9 10 10 8 7 7 7 6 4 2 2 3 2 4 5 6
7 5 5 6 6 4 6 7 6 4 6 8 8 7 7 7 9 10 10 8 6 7 8 12 14 14 11 7 6 8 10 9 10 12 12 11 11 12 13 13 13 12 12 13 12 11 11 11 11 12 12 11 9 7 7 7 6 6 6 5 3 5 5 4 4 5 5 7 9 10 10 9 6 6 6 7 6 4 3 5 7 7 7 8 7
7 6 5 6 8 7 5 6 5 6 8 9 8 5 4 6 8 8 7 6 7 9 10 10 11 11 11 8 8 9 10 10 10 11 10 10 11 12 12 12 12 12 12 12 12 12 12 13 13 15 16 16 14 11 9 9 8 7 6 4 4 5 4 3 4 5 6 9 11 10 8 7 6 5 5 5 4 4 6 9 8 6 5 5 4
6 6 4 4 5 5 4 6 8 8 7 6 4 3 4 4 7 8 7 6 7 8 9 9 9 8 9 9 9 9 9 10 10 9 8 9 10 11 10 11 11 12 11 11 11 12 12 14 15 16 17 17 17 15 13 11 9 7 6 4 2 3 3 2 3 6 9 10 9 7 5 5 4 3 2 3 4 5 8 10 9 7 8 10 10
5 4 1 2 1 1 1 5 8 7 6 5 5 3 4 5 6 7 6 5 5 7 9 9 8 7 6 7 8 9 8 9 10 9 8 9 11 11 10 10 12 13 12 12 12 12 12 13 14 14 14 15 17 17 16 14 11 8 6 5 5 5 5 3 3 6 8 7 6 6 6 5 3 1 2 3 4 6 7 8 9 8 8 9 9
6 4 1 1 1 1 1 4 5 4 4 5 5 2 4 7 6 6 5 4 3 6 8 8 7 7 7 7 8 9 9 9 9 9 9 10 12 12 11 11 13 13 12 12 12 11 11 11 12 12 12 13 14 15 15 15 14 12 9 6 5 6 8 7 6 6 6 5 6 6 6 4 2 1 2 3 5 7 7 8 9 9 7 7 9
5 4 2 2 2 2 2 2 2 3 4 3 1 1 4 7 6 4 3 1 2 3 7 8 7 6 7 7 9 10 10 10 10 10 9 10 12 12 11 11 11 11 10 10 10 10 10 10 10 10 10 10 10 10 11 13 13 13 12 9 6 6 8 8 8 8 8 8 7 5 3 2 3 3 4 5 6 6 7 9 10 9 7 8 9
4 3 3 2 2 2 2 4 5 4 4 5 3 2 2 4 4 1 2 4 2 2 6 8 7 5 5 6 7 8 9 9 9 9 9 10 11 10 10 9 9 9 9 9 9 9 10 10 10 10 9 9 9 9 10 11 11 11 11 11 9 7 6 6 7 8 8 8 6 5 3 4 5 4 4 3 3 4 6 9 10 9 8 8 9
2 4 3 2 3 3 2 2 4 3 3 4 2 2 2 1 2 3 4 6 5 3 5 6 5 4 4 4 5 6 8 8 8 8 8 8 8 8 9 9 9 8 8 8 9 9 9 9 8 8 8 9 9 9 9 10 10 10 10 10 10 8 7 6 6 7 6 5 4 4 3 4 4 5 7 7 7 7 9 9 9 8 8 8 8
1 3 3 3 4 5 4 3 2 1 1 1 1 3 4 4 3 3 5 5 5 6 6 5 4 3 3 3 4 5 6 6 6 6 6 5 5 6 7 7 7 6 6 6 7 8 8 8 8 7 8 8 9 8 8 8 8 8 8 8 8 8 7 6 6 5 5 3 2 1 1 2 3 5 7 8 9 9 7 6 7 8 7 7 8
2 3 3 3 3 5 5 5 4 2 1 2 3 3 4 7 8 5 4 3 1 5 9 8 5 4 4 2 1 3 4 3 3 2 2 2 3 3 4 5 6 5 5 5 5 5 6 7 8 8 8 8 8 8 8 7 7 6 7 6 6 5 4 3 3 3 2 1 1 1 3 4 4 3 2 3 6 7 6 6 7 8 7 7 8
2 3 3 4 4 5 5 6 6 6 3 3 3 2 2 4 8 7 6 7 8 3 4 8 7 6 6 5 3 1 2 2 1 1 1 1 2 2 1 2 4 4 4 4 4 4 5 5 6 7 8 8 8 8 8 8 7 8 8 7 6 4 3 2 2 1 0 2 2 2 3 5 5 5 3 2 3 6 8 8 7 7 8 7 7
Wind_Direction
201 175 141 145 144 139 145 151 151 151 152 152 150 145 145 149 147 148 154 162 165 164 159 153 145 142 145 147 145 141 137 135 134 132 134 139 134 131 143 145 135 130 128 130 129 130 139 140 137 142 143 144 148 151 158 165 167 165 162 163 164 161 159 152 143 149 159 152 149 156 161 163 167 167 167 168 162 169 188 183 170 169 164 157 155
127 125 146 157 151 145 150 152 150 150 152 151 152 155 159 158 156 157 160 166 170 167 160 152 146 147 149 149 146 145 145 141 138 139 139 132 127 134 143 130 121 121 126 131 130 133 141 140 136 139 141 146 152 158 164 171 171 167 163 163 164 168 172 166 156 151 147 151 157 161 168 174 171 167 175 177 171 177 193 193 186 188 189 183 181
135 144 154 157 155 149 147 151 153 154 155 156 161 165 163 159 159 161 162 168 172 167 156 150 149 151 150 147 146 147 145 143 142 143 141 136 134 132 118 111 112 119 129 130 129 132 131 130 135 139 145 157 162 160 168 181 176 161 161 168 171 179 183 172 160 154 146 154 165 165 172 185 176 171 182 183 177 185 197 202 196 190 201 210 205
144 158 158 154 156 151 146 149 153 156 160 161 163 162 157 156 159 160 161 167 169 159 151 149 148 150 149 145 145 146 144 145 145 144 144 144 139 126 111 115 124 136 139 131 125 124 124 130 139 144 154 165 163 161 180 220 217 153 138 153 171 183 184 174 160 156 154 163 177 172 176 193 189 175 182 184 182 191 200 205 202 194 202 217 215
151 161 163 159 158 154 148 143 143 148 155 155 155 155 152 152 156 158 160 161 157 150 148 149 147 148 151 148 147 147 146 147 147 147 151 149 141 136 131 136 145 139 130 127 124 124 131 141 146 147 157 164 151 160 186 255 270 144 131 141 162 165 170 171 161 159 163 173 187 185 178 193 203 184 180 184 187 197 202 201 212 206 198 204 213
154 159 163 160 158 156 151 145 141 141 145 148 150 151 148 149 151 154 156 154 152 152 151 148 146 150 153 151 149 147 148 151 149 149 153 152 148 146 145 145 139 121 116 120 123 127 135 140 144 147 155 162 155 167 198 247 285 121 126 145 161 151 156 169 160 161 171 179 190 194 177 186 211 199 183 185 189 198 203 203 215 209 192 194 208
159 158 156 154 154 155 152 149 145 141 142 147 148 148 148 150 150 150 152 152 152 152 150 147 148 153 155 151 147 148 150 150 148 149 152 154 152 149 145 139 131 128 126 127 128 133 138 135 136 147 158 166 164 165 183 194 128 60 61 99 142 151 165 195 173 165 173 179 189 199 182 183 208 215 197 190 191 199 207 209 209 198 190 197 205
163 156 151 149 149 152 152 149 145 141 143 146 148 149 152 153 149 147 150 153 154 153 152 152 153 155 154 149 146 149 148 144 147 154 155 155 150 145 145 140 138 141 129 124 129 129 130 134 141 154 166 174 178 178 181 192 178 118 9 358 137 157 171 211 230 189 179 181 185 196 194 186 200 222 220 200 192 198 209 216 210 190 186 199 207
154 151 145 141 139 141 144 144 144 143 143 143 143 147 153 151 146 146 149 153 158 158 155 154 156 155 153 150 145 142 137 137 144 149 146 150 152 148 147 140 138 143 125 120 132 124 108 109 107 122 141 154 169 176 179 191 195 192 212 219 234 249 216 227 258 251 217 200 188 190 198 193 195 213 228 222 208 204 209 216 212 196 188 194 204
147 143 136 135 135 134 132 133 136 138 142 143 142 147 156 150 141 145 149 151 159 163 155 156 160 156 154 153 143 130 121 125 129 128 130 139 147 142 140 134 124 120 103 103 110 101 87 75 58 47 56 74 89 169 188 201 210 209 217 212 210 226 227 232 254 265 262 255 224 202 200 201 199 205 219 232 232 221 214 215 211 198 189 189 196
140 133 131 133 132 129 127 127 125 127 134 140 140 144 151 144 139 147 150 149 156 159 154 159 164 159 158 150 132 119 111 107 114 120 115 119 131 125 110 114 118 102 80 81 63 36 56 71 37 3 9 41 28 354 294 270 274 266 260 259 252 234 221 226 241 258 272 279 277 257 230 222 217 211 214 225 235 235 227 222 215 200 190 188 192
128 123 125 129 128 126 125 123 121 120 123 128 132 136 138 133 131 134 134 139 148 150 153 160 163 161 155 141 120 110 113 98 106 126 112 100 111 112 87 80 105 97 75 52 25 31 49 63 33 318 318 316 351 352 329 308 300 290 276 268 265 257 244 236 237 249 264 268 272 277 273 268 258 243 233 226 228 236 235 227 222 213 204 201 198
108 114 118 124 126 126 127 126 125 123 119 119 123 125 124 122 118 112 107 114 128 129 128 140 149 157 146 135 123 117 130 130 127 140 129 98 97 102 69 47 41 34 56 53 14 22 24 11 342 295 294 289 270 261 275 288 294 299 294 279 269 263 256 250 246 247 252 255 259 261 259 262 263 263 268 255 239 246 249 236 226 221 219 216 213
81 96 112 125 129 129 131 132 132 131 128 125 122 116 108 107 112 114 107 104 113 112 102 104 102 89 105 121 128 131 132 134 131 125 126 97 72 76 34 13 10 0 342 285 284 309 314 306 287 264 268 276 273 264 260 263 270 291 302 294 287 280 270 264 260 257 255 253 256 257 255 258 259 253 256 261 252 247 255 254 243 235 236 228 221
63 67 77 102 126 133 138 143 142 140 141 141 134 129 127 123 122 128 125 108 105 109 105 98 87 81 89 102 111 114 112 110 110 106 105 94 31 16 278 293 331 348 345 331 325 318 292 281 282 280 277 280 282 273 266 262 258 269 295 297 293 289 278 273 269 265 263 260 259 260 257 258 260 253 251 258 254 242 244 252 252 248 248 239 220
57 59 59 68 102 129 138 144 145 142 142 143 137 134 137 136 130 136 141 129 120 121 120 114 99 92 96 100 97 93 88 87 88 86 92 112 175 242 252 313 319 317 318 320 320 318 309 283 264 280 291 291 290 281 273 268 259 258 273 286 287 281 271 271 269 261 258 259 258 259 259 255 258 260 257 258 257 247 240 239 239 235 231 226 218
53 58 60 61 74 107 123 129 135 137 135 134 133 133 132 129 129 137 142 138 133 130 127 125 119 109 109 110 101 93 88 83 76 60 26 254 255 243 213 349 335 324 320 322 327 332 336 266 221 261 285 289 287 282 280 279 269 263 268 280 285 279 268 267 266 259 255 256 256 258 263 264 264 265 262 260 260 254 240 230 229 226 213 199 199
51 58 65 64 65 79 94 102 112 125 128 127 130 132 129 126 127 132 137 137 132 127 125 126 125 122 120 120 121 117 103 81 36 335 302 290 289 284 286 332 341 341 336 331 334 330 318 305 289 291 298 294 281 274 278 280 274 271 281 290 290 282 271 269 268 264 262 263 264 266 268 270 270 268 265 264 263 255 238 219 209 202 191 187 194
46 51 58 61 61 66 75 80 87 96 106 117 126 126 125 128 129 128 132 136 135 132 135 135 129 121 118 115 110 104 92 68 18 302 290 290 300 306 317 344 349 346 343 336 335 336 332 331 324 310 307 298 276 273 282 284 280 276 275 280 282 279 274 274 274 272 271 269 270 270 268 269 271 270 268 263 253 242 229 215 204 196 190 195 206
44 49 53 56 57 59 61 67 74 79 85 95 109 118 126 137 141 139 138 139 138 136 138 139 133 124 121 118 114 109 91 55 359 312 295 294 312 322 330 9 356 347 356 356 350 356 358 351 345 336 322 309 289 290 294 290 288 281 269 268 275 279 278 277 275 274 273 272 270 267 265 267 268 264 259 251 239 231 223 217 213 207 201 202 207
44 50 53 53 55 53 51 53 59 63 68 73 79 86 100 120 130 130 127 130 140 146 146 143 137 130 125 123 133 146 94 26 335 314 323 346 9 1 319 346 350 349 14 20 16 24 31 3 357 44 44 318 308 312 310 307 303 296 286 280 278 277 278 278 277 273 269 266 263 259 261 267 267 258 247 237 231 227 220 214 209 208 208 206 200
41 46 51 52 52 52 49 48 50 52 55 58 60 65 74 90 105 109 109 111 121 138 147 145 137 128 120 116 122 119 94 81 74 58 53 55 50 38 14 3 3 2 22 37 37 44 54 39 13 16 357 329 321 319 318 316 312 306 300 293 284 278 276 275 276 272 261 253 251 248 249 254 252 242 227 217 215 216 213 205 197 197 199 193 185
46 47 49 50 50 50 50 49 48 49 51 53 53 54 57 64 73 84 100 116 127 140 146 143 135 128 122 118 116 110 96 83 72 57 49 47 44 38 30 23 14 5 12 31 29 15 5 358 349 342 339 335 330 326 322 321 320 316 311 304 294 285 277 269 268 263 250 241 240 240 241 240 233 217 201 196 201 206 204 194 183 180 177 168 154
49 47 47 48 47 47 48 49 51 50 49 51 50 48 50 52 50 51 60 79 104 126 138 142 143 142 144 147 138 124 110 93 78 66 57 52 51 48 43 37 29 21 17 15 3 354 353 353 347 340 335 330 326 327 327 327 327 325 321 316 307 292 274 261 258 251 241 237 236 236 236 231 216 197 186 186 191 193 191 188 186 186 179 165 150
47 47 45 44 45 48 51 51 52 52 51 51 48 44 45 48 46 45 47 51 56 64 87 110 120 122 130 139 136 124 113 96 80 67 55 49 45 41 39 31 24 26 32 27 10 5 2 357 352 346 340 336 334 334 334 334 335 332 329 329 323 304 274 264 265 258 246 243 240 236 231 216 200 191 188 188 186 184 185 188 191 192 186 177 170
46 47 46 44 44 49 55 54 52 52 55 56 53 49 47 47 48 48 47 47 46 44 47 55 62 70 79 87 92 97 98 90 76 64 56 49 37 32 31 24 19 28 40 35 18 8 358 352 351 349 346 349 355 355 351 351 351 347 346 348 347 327 283 272 279 281 272 263 254 243 233 218 203 197 193 188 183 184 188 187 181 183 185 174 158
45 45 46 45 43 45 51 53 53 53 55 58 60 56 52 48 47 48 46 45 44 42 45 48 47 45 46 57 71 80 79 72 66 59 48 41 33 27 25 17 14 17 10 353 348 349 344 340 338 336 336 342 355 359 356 356 357 353 350 351 353 346 315 287 283 284 282 279 266 246 235 219 202 192 186 182 180 182 186 179 164 161 164 165 158
46 45 43 43 43 43 46 49 52 53 53 56 61 60 55 50 51 53 52 51 50 48 49 53 49 41 38 47 59 63 57 53 55 50 39 31 29 23 16 8 3 356 347 339 336 335 332 328 329 332 327 324 330 342 350 355 356 353 349 346 348 350 339 314 298 292 289 284 264 238 217 198 187 181 177 176 176 175 172 169 162 158 161 166 161
49 46 41 38 40 42 44 48 57 62 60 61 66 66 62 59 62 65 63 60 61 61 61 65 65 58 52 53 59 62 58 52 51 49 42 35 29 22 16 12 6 359 354 346 337 335 335 334 336 332 318 314 326 342 355 356 350 350 355 348 343 344 339 326 314 304 298 292 265 224 199 184 178 174 169 167 167 163 161 165 165 159 157 151 135
69 58 50 45 45 49 49 48 59 85 92 85 82 80 79 76 75 75 73 69 69 70 68 70 72 71 66 63 62 64 62 57 52 49 44 37 31 25 18 13 9 6 1 352 344 343 340 333 329 324 325 348 8 10 8 6 0 359 1 350 336 330 325 321 315 302 297 297 276 214 190 181 175 172 167 160 156 153 153 156 157 150 143 135 121
73 72 64 56 54 59 61 55 56 77 108 118 109 100 94 90 86 84 82 81 80 79 75 69 67 68 70 72 71 68 65 62 56 46 37 28 20 13 7 4 5 5 5 3 359 352 339 330 337 347 360 14 15 8 6 6 3 359 356 350 343 334 319 312 312 306 300 298 277 190 178 180 172 161 150 142 138 133 129 130 131 126 120 114 98
42 50 50 54 60 64 70 70 63 64 81 114 127 122 114 107 103 99 95 92 91 90 86 78 69 66 68 71 72 67 59 52 43 33 24 15 4 356 352 353 357 5 11 9 3 1 4 7 8 9 14 16 13 9 9 6 1 358 356 357 0 1 352 335 324 315 300 268 192 152 145 146 137 127 126 127 122 113 106 105 104 102 101 96 82
38 27 19 33 56 58 56 64 67 62 64 77 102 122 129 129 126 118 109 102 99 97 95 90 83 76 71 67 62 57 53 49 42 33 27 16 3 352 345 341 346 10 23 19 17 19 24 25 20 15 14 14 11 10 9 6 4 5 4 5 8 10 7 357 343 331 298 149 142 131 126 125 120 113 109 108 104 99 94 89 85 82 78 75 66
56 41 30 37 53 51 41 42 44 45 55 66 70 72 83 116 137 141 138 132 125 116 105 96 91 83 75 72 68 64 64 64 56 50 45 32 18 7 359 358 13 35 26 29 34 31 27 25 21 15 12 11 12 13 11 8 6 7 8 9 7 0 354 348 342 91 124 123 124 121 120 121 119 113 104 98 96 99 96 86 74 65 57 48 38
72 57 43 40 48 57 53 43 31 26 35 55 65 59 45 49 80 107 121 135 141 136 123 104 89 78 67 65 67 61 60 62 56 50 44 35 29 27 27 32 40 35 26 32 38 31 25 26 23 15 10 10 13 14 13 10 7 5 3 0 354 350 347 339 310 167 144 135 132 130 130 130 130 126 121 117 113 108 102 88 69 63 62 49 25
43 37 27 11 10 36 64 66 48 29 20 32 64 74 60 50 55 61 53 38 49 109 127 116 89 66 50 46 48 36 29 44 52 47 41 37 36 34 31 32 35 32 27 31 33 28 27 32 28 19 13 11 11 11 10 9 5 356 348 343 341 342 344 342 172 168 160 151 148 151 154 151 145 141 137 132 121 110 105 96 83 77 72 45 7
34 23 11 353 355 13 58 80 57 35 26 34 51 60 55 50 55 62 59 37 26 56 104 107 78 50 36 30 26 17 14 42 62 53 44 40 39 38 34 34 35 33 29 29 27 24 28 33 31 26 19 12 9 6 2 2 1 350 340 337 338 339 339 162 164 169 169 160 153 152 149 142 134 129 126 123 117 109 103 98 87 78 73 22 336
41 24 21 28 17 19 43 64 46 33 36 50 59 55 43 42 50 56 63 51 29 30 50 65 63 49 30 17 14 18 25 46 64 57 47 40 39 42 42 41 38 34 31 29 24 22 26 31 33 34 31 24 19 11 0 358 4 359 347 343 346 12 154 158 160 163 163 157 148 147 146 139 129 124 119 117 115 108 93 74 30 346 294 273 286
37 29 32 38 29 30 45 54 46 38 37 49 65 64 48 45 51 51 54 54 42 29 34 51 59 48 24 6 4 16 26 39 57 60 52 43 41 45 47 46 42 37 33 31 28 25 24 23 22 22 21 22 28 28 17 11 11 6 356 352 3 157 164 166 165 162 160 156 149 147 144 136 130 127 120 110 101 78 25 341 329 333 316 293 287
7 26 41 40 29 37 55 55 47 43 41 44 58 65 54 44 45 49 55 60 51 37 51 67 60 40 22 4 352 0 14 34 59 66 59 50 47 49 51 49 45 42 38 35 31 30 27 21 13 9 8 9 18 29 28 25 22 16 6 351 250 214 219 219 196 174 161 161 157 149 141 134 127 117 96 73 52 33 4 301 281 299 301 293 299
346 0 37 30 7 20 64 65 50 43 52 51 52 57 58 57 54 49 51 57 51 41 60 74 63 42 31 31 23 20 30 49 64 65 61 57 54 55 54 50 45 45 45 40 33 31 33 30 25 26 30 29 25 22 23 27 33 32 19 356 283 261 278 267 218 188 165 154 146 138 134 131 115 88 62 39 19 0 329 302 286 273 263 261 264
340 346 19 19 4 10 59 82 70 57 62 63 54 40 50 80 88 77 58 48 49 48 54 62 55 41 37 45 48 46 49 56 58 58 60 59 57 57 59 54 47 46 50 48 39 36 38 39 39 41 41 37 34 32 30 27 33 41 35 5 310 293 304 278 206 174 145 136 134 129 125 118 95 70 40 16 7 352 335 329 324 318 318 322 324
333 347 24 35 16 8 37 61 53 43 51 71 72 21 14 59 86 86 70 50 51 60 62 58 50 42 39 44 50 53 56 57 55 55 63 70 64 59 63 67 61 56 62 66 58 48 48 52 52 50 46 41 40 42 41 34 32 43 53 50 29 10 1 321 199 154 125 121 126 125 115 105 91 64 12 2 0 344 339 345 351 350 347 351 358
313 318 20 118 186 248 85 79 67 52 59 104 125 95 55 62 66 63 59 53 55 69 74 69 62 59 50 44 50 58 62 63 59 54 63 78 76 67 70 82 79 67 67 76 77 69 64 64 62 56 50 45 43 44 46 45 40 40 48 58 63 61 55 62 148 134 116 117 131 129 115 110 107 47 354 353 341 333 341 356 3 359 353 354 359
310 305 283 187 247 308 105 121 126 128 133 151 168 159 77 82 79 56 40 28 35 73 88 86 75 74 74 67 65 67 66 65 66 64 67 78 80 73 71 79 81 74 66 67 73 75 73 69 65 59 53 48 43 41 44 49 50 47 47 54 69 84 93 104 116 120 116 123 133 127 115 106 93 335 318 319 326 336 346 354 352 348 348 350 352
309 318 342 6 5 3 9 34 100 145 152 152 190 327 46 77 85 69 49 16 338 60 91 93 81 73 79 79 77 78 75 68 67 71 78 86 88 80 70 64 67 71 69 61 60 67 69 64 61 59 58 58 55 47 45 51 54 54 54 58 70 95 112 119 122 122 119 116 121 128 119 47 358 325 306 304 312 328 346 355 352 344 334 328 329
322 324 339 1 359 330 325 357 14 45 83 81 58 344 16 86 99 103 155 164 161 61 74 87 82 70 73 77 80 89 93 87 77 73 75 79 79 79 77 71 63 62 65 62 57 59 63 62 59 57 57 61 65 62 59 60 62 62 63 66 71 85 108 123 131 131 126 121 121 120 89 35 14 359 346 336 319 319 335 344 347 350 352 347 339
331 320 325 332 325 316 321 357 0 14 66 79 63 289 286 134 145 206 215 191 165 105 79 86 87 75 66 71 85 100 105 104 97 86 75 68 63 61 67 72 68 59 54 52 49 47 49 51 52 51 50 50 53 56 56 58 60 63 66 71 73 77 86 99 114 122 120 111 97 82 54 23 6 1 359 352 343 339 339 335 332 338 351 357 354
311 320 334 337 322 321 330 344 337 350 54 56 302 287 306 318 305 269 245 219 182 148 127 112 103 101 83 58 67 89 94 91 89 86 77 68 59 45 37 41 52 60 60 54 47 42 38 36 35 38 41 39 38 40 41 43 47 51 55 61 67 71 76 88 102 110 109 104 94 70 340 325 345 4 8 4 359 357 356 350 342 339 345 357 3
334 325 326 319 308 311 323 329 327 334 1 323 309 321 334 327 319 308 284 276 221 144 141 139 136 143 146 125 56 77 89 86 80 82 71 49 39 33 23 19 27 42 57 61 54 48 44 35 26 25 30 31 29 31 33 33 35 41 45 47 50 55 65 80 96 110 115 91 2 343 333 324 318 317 349 26 29 24 14 2 355 351 347 350 354
333 325 316 314 312 312 319 322 323 324 323 302 301 318 321 301 299 297 293 304 316 324 144 146 149 155 156 156 164 184 167 157 154 137 105 66 28 14 25 41 41 42 51 58 55 50 47 41 27 21 25 31 32 34 37 40 45 51 53 49 46 50 57 57 66 90 30 342 346 4 15 15 13 7 0 24 61 46 28 16 9 4 358 353 352
Height
784 787 788 787 785 784 784 784 786 789 790 792 794 796 800 803 806 808 810 812 814 815 816 817 818 819 820 821 821 822 823 823 824 825 825 826 826 827 827 827 828 829 830 831 832 833 834 836 837 838 839 840 841 842 843 844 845 846 847 848 850 851 852 853 855 857 860 861 862 865 867 868 870 871 872 874 874 875 875 876 876 877 877 878 878
781 788 789 789 787 784 785 785 786 789 790 792 794 797 801 804 806 808 810 812 814 815 816 817 818 819 820 821 821 822 823 823 824 825 825 826 826 827 827 827 828 829 830 831 832 834 835 836 837 838 839 841 841 843 843 844 845 846 847 848 850 851 852 853 855 857 858 860 862 864 866 867 868 870 871 872 873 874 874 875 876 876 877 877 877
779 785 787 788 787 786 786 786 787 789 791 793 795 798 801 803 806 808 810 812 813 815 816 816 817 819 820 821 821 822 823 824 824 825 825 826 826 827 827 827 828 830 831 832 833 834 835 836 838 839 840 841 842 843 843 843 845 846 846 847 849 850 852 852 854 856 858 859 861 863 864 866 867 868 870 871 873 873 873 874 875 875 875 875 876
779 783 785 787 787 787 788 788 788 790 792 794 796 799 801 803 806 808 810 812 813 814 815 816 817 819 819 820 821 822 823 824 825 825 826 826 827 827 827 828 830 831 831 832 833 835 836 837 839 840 841 842 842 844 844 844 845 846 846 847 849 850 851 852 853 855 857 859 861 862 863 865 866 867 868 870 872 872 872 873 873 873 873 874 874
779 783 785 786 787 787 789 789 789 790 792 794 796 799 801 803 806 808 809 811 812 813 815 816 817 819 819 820 821 822 823 824 825 826 826 827 827 828 828 829 830 831 832 833 834 836 837 838 839 841 842 843 843 844 845 845 846 846 846 848 849 850 851 852 853 855 857 859 860 861 862 864 865 865 866 868 870 871 871 871 871 871 872 872 872
778 782 784 785 786 786 788 788 789 790 792 794 797 799 801 803 806 808 809 811 812 814 814 816 817 818 819 820 821 822 823 824 825 826 827 827 828 829 829 830 831 832 833 834 836 837 838 839 840 841 843 844 844 845 846 846 846 847 847 848 849 850 851 853 853 854 857 858 860 861 861 863 864 864 864 866 868 869 870 870 869 869 869 869 870
779 781 783 784 785 786 787 787 788 789 791 794 797 799 801 803 805 807 809 811 813 814 815 816 817 818 819 820 822 823 824 825 826 827 827 828 829 829 830 831 832 833 834 835 837 838 839 840 841 843 844 844 845 846 846 846 847 847 847 848 850 850 852 853 853 854 855 857 859 860 861 862 863 864 864 864 866 867 867 867 867 867 866 866 867
781 782 783 784 785 786 787 787 788 790 791 794 797 799 801 803 805 807 809 811 813 814 815 816 817 819 820 821 822 823 824 825 826 827 828 828 829 830 831 832 833 834 835 836 838 839 841 842 843 844 845 845 845 846 847 847 847 848 848 849 850 851 852 852 853 854 855 855 857 858 860 861 862 863 863 863 863 864 865 865 865 864 864 864 865
782 784 784 784 785 786 787 787 789 791 792 794 797 799 802 803 805 807 809 811 813 814 815 817 817 819 820 821 823 824 825 825 826 827 828 829 830 831 832 833 834 836 837 838 839 841 842 844 845 845 846 846 847 847 847 848 849 849 850 850 851 851 852 853 853 853 855 855 855 856 858 859 860 861 862 861 861 861 862 863 863 862 862 863 864
783 785 784 784 785 786 787 788 790 792 793 795 797 800 802 804 805 808 810 811 813 814 816 817 817 819 820 822 823 824 825 826 827 828 829 829 831 832 834 835 835 837 838 839 841 842 843 844 845 847 847 847 847 848 849 849 850 850 851 851 851 851 852 853 853 853 854 854 854 855 855 856 857 858 859 860 860 860 860 861 860 860 861 861 862
784 786 785 786 786 787 788 789 791 792 794 796 798 800 803 805 806 809 810 812 813 814 816 817 818 819 821 822 823 824 826 827 828 829 830 830 831 833 834 836 836 838 839 840 842 843 843 844 846 847 847 847 848 848 849 850 850 851 851 851 852 852 852 852 852 853 853 853 853 854 854 855 855 856 857 858 858 859 858 858 858 858 858 858 860
785 786 786 788 789 789 789 790 791 793 794 796 799 801 803 805 807 809 810 812 813 815 816 818 819 820 821 822 823 824 827 828 829 830 831 832 833 834 835 837 838 840 841 842 845 846 846 846 847 848 848 848 848 849 849 850 850 851 851 851 851 852 851 851 851 852 852 852 852 853 853 854 854 855 855 855 856 856 856 856 855 855 855 855 856
787 788 788 790 791 791 792 792 793 795 796 798 801 803 804 806 807 809 810 812 813 815 816 818 819 821 821 822 823 825 828 829 830 831 832 833 834 835 837 838 839 841 841 843 845 846 847 848 849 848 848 849 849 849 849 849 850 851 851 851 851 851 851 851 850 850 850 850 850 850 851 851 851 852 853 853 853 854 855 854 853 852 852 852 852
790 790 790 792 793 793 794 795 796 797 799 801 803 805 806 808 809 810 811 812 814 815 816 818 819 821 821 822 825 827 829 830 831 832 833 834 835 836 838 839 840 842 842 843 845 846 847 849 849 848 848 848 849 849 848 848 848 849 850 851 851 851 850 850 850 849 849 849 849 849 849 849 848 849 850 850 850 851 853 853 852 851 851 851 851
792 792 792 793 794 795 795 796 797 798 800 803 805 807 809 811 812 812 813 814 815 816 818 819 820 822 823 825 827 828 830 831 832 833 834 835 837 838 839 840 841 842 843 843 845 845 846 847 847 847 848 848 848 848 848 848 847 847 849 851 851 850 849 849 848 848 848 848 848 848 848 848 847 847 847 847 847 847 848 850 852 852 852 851 851
795 795 795 795 796 797 797 798 799 800 802 805 807 808 811 812 814 815 815 816 817 818 819 821 822 823 825 826 828 829 831 832 833 834 835 836 837 838 839 840 841 842 843 844 844 845 845 846 846 847 847 847 847 847 847 847 847 847 848 849 850 849 848 847 847 846 846 847 847 847 847 846 846 846 846 846 845 845 845 846 848 849 849 850 851
799 799 798 799 799 799 800 800 801 802 804 806 808 809 811 813 814 816 817 818 820 821 821 822 824 825 826 827 829 830 831 832 833 834 835 837 838 838 839 840 841 842 843 844 845 844 845 845 846 846 846 846 846 846 846 846 846 846 846 847 849 848 846 846 845 844 845 844 844 845 845 845 845 845 845 844 844 844 844 843 843 844 845 848 850
804 803 802 803 803 802 802 803 803 804 806 807 809 811 812 814 815 817 818 820 821 823 823 823 825 826 827 828 829 830 831 832 833 834 836 837 838 838 839 840 841 842 843 843 844 844 844 845 845 845 845 845 845 845 845 845 845 845 846 847 848 847 845 845 843 843 843 843 842 842 842 842 842 842 842 842 842 842 842 841 841 843 844 846 848
807 807 806 806 806 805 805 806 807 807 808 809 810 812 813 815 817 818 820 822 823 823 823 824 826 827 827 828 829 830 831 832 833 835 836 837 838 838 839 839 840 841 842 843 844 844 844 845 844 843 843 844 844 844 844 844 844 844 846 847 847 845 844 843 842 841 840 840 840 840 839 839 840 840 840 839 839 839 839 839 840 841 844 846 847
811 810 810 809 808 808 809 810 810 810 811 811 812 813 814 816 818 819 821 823 823 824 824 826 827 827 828 828 829 830 832 833 835 836 836 837 838 838 838 839 839 841 841 842 843 843 844 844 844 843 843 843 843 844 844 844 844 845 846 846 845 843 842 842 842 840 839 839 839 838 838 838 838 838 838 838 837 836 836 837 838 839 840 842 843
814 814 814 813 813 812 812 812 812 812 813 814 815 816 816 817 819 820 822 823 823 823 825 827 827 827 827 828 829 831 832 834 835 836 837 837 838 838 838 839 839 840 841 842 842 842 842 843 843 843 843 843 843 843 844 844 843 843 843 843 842 842 841 840 840 839 838 838 837 837 836 836 836 836 836 836 835 835 835 836 836 836 837 838 839
817 817 817 818 818 817 817 816 815 815 815 816 818 818 819 820 821 822 823 824 824 824 826 827 827 828 828 830 831 832 833 835 836 838 838 838 838 838 839 839 840 840 841 842 842 842 842 843 843 843 843 843 843 843 843 842 842 841 841 841 840 840 840 839 838 838 837 836 836 836 835 835 835 835 835 834 834 834 835 835 835 835 836 837 838
820 820 820 821 821 821 821 820 819 819 819 819 820 820 821 822 823 824 824 824 825 826 827 828 829 829 830 831 832 833 835 836 838 839 839 839 839 840 840 841 841 841 841 842 842 843 843 843 843 843 843 842 842 842 841 841 841 840 839 839 838 838 838 838 838 837 837 836 835 835 834 834 834 834 834 833 833 833 834 835 835 836 836 837 838
822 822 822 823 823 824 824 823 823 823 823 823 823 823 823 824 824 825 826 826 826 827 828 829 831 831 832 833 834 835 836 837 839 840 840 841 841 841 842 842 842 842 842 842 842 843 842 842 842 842 842 841 841 841 840 839 839 838 838 837 837 836 837 837 837 837 836 835 834 834 833 833 833 833 833 833 833 833 834 835 836 836 837 837 838
825 825 825 825 826 826 826 826 826 826 826 826 826 826 827 827 826 827 827 827 828 828 829 831 831 832 833 835 835 836 837 839 840 841 842 842 842 842 843 843 843 843 843 843 843 843 842 842 842 841 841 841 840 840 839 838 838 837 836 836 836 836 836 837 837 836 835 835 834 833 833 832 832 833 832 833 833 834 835 835 836 837 837 837 838
828 828 828 828 828 829 828 828 828 828 828 829 829 829 830 829 829 829 829 830 830 831 831 831 832 833 834 835 837 838 839 840 841 842 842 842 842 843 843 843 843 843 843 843 843 842 842 842 841 841 841 840 840 839 839 838 837 836 836 835 836 836 837 837 836 836 835 834 834 833 833 833 833 833 833 833 833 834 835 836 836 837 837 838 839
831 831 831 831 831 831 831 831 831 831 831 831 831 832 832 832 832 832 832 833 833 833 834 834 834 835 836 837 838 839 840 841 842 842 842 842 842 842 842 842 843 843 842 842 842 841 841 841 841 841 840 839 839 838 838 837 836 836 836 836 836 836 837 836 836 835 835 834 833 833 832 832 832 833 833 833 833 834 835 835 836 837 838 839 840
834 833 833 833 833 833 833 833 833 833 833 833 833 834 835 835 835 835 836 836 836 836 837 837 837 838 838 839 840 840 841 842 842 842 842 842 842 842 842 842 842 842 842 842 841 841 841 841 840 840 839 839 838 838 837 837 837 836 836 836 836 836 836 836 836 835 835 834 833 831 831 831 832 832 832 833 833 834 834 835 836 838 839 840 840
836 836 835 835 835 835 835 834 834 834 835 835 835 836 837 837 837 838 838 839 839 839 840 840 840 841 841 841 842 842 843 843 843 844 844 843 843 843 843 843 843 842 842 842 841 841 841 840 840 839 839 839 838 838 838 838 837 837 836 836 836 836 836 836 836 835 834 834 832 831 830 831 832 832 833 833 834 834 835 836 837 839 840 840 839
838 838 837 837 837 836 836 836 836 836 836 837 837 838 839 839 840 840 840 841 841 841 841 842 842 843 843 843 843 844 844 845 845 845 845 845 845 844 844 844 843 843 842 842 841 841 840 840 840 839 839 839 838 838 838 838 838 837 837 836 836 835 835 835 835 834 834 833 833 832 831 831 832 833 833 834 834 835 837 838 839 839 839 839 839
839 839 839 839 839 838 838 838 837 837 838 838 839 840 841 842 842 842 842 843 843 843 843 844 845 845 845 845 845 846 846 847 847 847 846 846 846 845 845 844 843 843 842 841 841 841 840 840 840 840 839 839 838 839 839 838 838 837 837 837 836 835 834 833 833 833 834 833 833 833 833 834 834 834 835 835 836 836 837 838 839 840 839 839 840
841 841 841 840 840 840 839 839 839 839 839 840 840 841 842 842 843 844 844 844 844 845 845 846 846 847 847 847 847 848 848 847 847 847 847 846 846 845 844 844 844 843 843 842 841 841 841 840 840 840 839 839 839 839 839 838 838 838 837 836 836 835 834 834 833 833 833 833 833 834 834 835 835 835 835 836 837 837 837 839 840 840 840 840 841
843 842 841 841 841 841 841 840 841 841 841 841 841 842 842 842 843 844 845 845 845 846 846 846 847 848 848 848 848 848 848 848 848 847 847 846 846 845 844 844 844 843 843 842 842 841 841 841 841 841 840 840 840 840 839 839 839 838 837 837 836 835 835 835 835 835 834 833 834 834 834 835 836 837 837 837 838 838 840 841 842 842 842 842 842
845 844 843 842 843 843 842 842 842 842 842 842 842 842 842 842 842 843 844 845 846 846 847 847 847 848 849 849 849 849 849 848 848 847 847 846 845 845 844 843 843 843 842 842 842 841 841 841 842 842 842 842 842 841 840 840 839 838 838 838 836 835 835 836 836 835 835 835 835 835 835 836 837 838 839 839 840 842 843 843 843 843 843 844 844
846 846 845 845 845 845 845 845 845 844 844 843 844 844 843 843 843 843 844 844 845 846 848 848 848 848 849 849 849 849 849 848 848 847 847 846 845 844 843 842 842 842 842 842 842 842 842 843 843 844 844 844 843 842 842 841 840 839 839 838 837 836 836 836 836 836 836 836 836 836 836 838 839 840 841 841 842 843 843 844 844 844 844 845 846
846 847 847 846 846 846 846 846 846 845 845 844 845 845 844 844 844 844 844 845 845 846 847 848 848 848 849 849 849 849 849 848 848 847 847 846 845 844 843 843 843 843 843 843 844 844 844 844 845 845 845 845 844 843 843 842 841 841 840 839 838 837 837 836 837 837 837 837 837 837 838 839 840 840 841 842 843 843 843 844 844 844 845 846 847
849 849 848 848 847 847 847 847 846 846 845 845 845 845 845 846 846 846 846 846 846 846 847 848 848 849 849 849 849 848 848 848 848 848 847 847 846 846 845 845 845 845 846 846 846 846 846 846 846 845 845 845 844 844 843 843 842 841 841 840 838 838 838 837 837 838 838 838 839 839 840 840 841 841 841 842 843 844 844 845 845 845 846 846 847
850 850 850 849 848 847 848 848 847 847 847 846 846 847 847 847 847 847 847 848 847 847 848 848 848 849 849 849 849 848 848 848 848 848 848 848 848 848 848 848 848 848 848 848 848 847 847 847 846 845 845 845 845 844 844 843 842 841 841 840 840 839 839 839 839 839 839 840 840 841 842 842 842 843 842 843 844 845 845 846 846 846 846 847 847
851 851 850 850 849 849 849 849 849 848 848 848 848 849 849 849 849 849 849 849 849 849 849 849 850 850 851 851 850 850 849 849 850 850 850 851 851 851 851 851 851 850 850 850 849 848 848 847 847 846 846 845 845 845 844 844 843 842 841 841 841 841 840 840 840 840 841 841 842 843 843 843 844 844 844 844 845 845 846 846 847 847 847 847 847
852 851 851 851 850 850 850 850 850 850 850 850 850 850 851 851 850 850 850 851 851 851 851 851 852 852 852 853 852 852 852 852 852 852 853 853 854 853 853 853 852 852 851 851 850 849 849 848 847 847 846 846 845 845 844 843 843 842 842 841 841 841 841 841 841 841 842 842 843 843 844 844 845 845 845 845 845 846 846 847 847 847 847 847 847
852 852 852 851 851 851 851 851 852 852 851 851 852 852 852 853 852 852 852 852 852 852 852 852 853 854 854 854 854 854 854 854 854 854 855 855 855 854 854 853 853 852 852 851 851 850 850 849 848 848 847 846 845 844 844 843 843 842 842 842 842 841 842 842 842 842 842 843 843 844 845 845 846 846 846 846 846 847 847 847 847 847 846 846 846
853 852 852 852 852 852 852 852 853 853 853 853 854 854 854 853 854 854 854 854 853 854 854 854 855 856 856 856 856 855 855 855 856 855 855 856 855 855 854 854 853 853 853 852 852 851 851 850 849 848 847 846 846 844 844 843 843 842 842 842 842 842 842 842 843 843 843 843 845 846 846 846 847 847 847 847 847 848 848 847 846 846 846 845 845
854 854 853 854 854 854 853 853 854 854 854 855 855 855 855 854 854 855 855 855 855 855 856 857 857 858 858 857 857 856 857 857 857 856 856 856 856 855 855 855 854 854 854 853 853 853 852 851 851 850 849 848 847 846 845 844 843 843 842 842 842 843 843 843 844 844 845 845 846 847 847 847 847 848 848 848 848 848 848 847 846 845 845 845 845
855 855 855 855 855 855 855 855 855 856 856 856 856 856 856 856 856 857 857 857 857 857 857 858 859 859 859 859 858 858 858 858 858 857 857 857 856 856 856 856 856 855 855 854 854 854 853 853 852 851 851 850 849 847 846 845 845 844 843 843 843 844 844 844 845 846 846 846 847 847 847 848 848 848 848 848 848 848 847 847 846 846 845 845 845
856 855 855 855 855 855 855 855 855 856 856 856 856 856 856 857 857 858 858 858 858 857 858 859 859 860 859 859 859 859 859 859 858 858 858 858 858 858 858 857 857 857 856 856 855 854 854 854 853 852 852 851 850 849 848 847 846 845 844 844 844 844 845 845 846 846 847 847 848 848 848 849 849 849 849 848 848 848 847 847 847 846 846 846 845
856 856 855 855 855 856 856 855 856 856 856 856 857 857 857 857 858 859 859 859 858 857 858 859 859 860 859 859 859 859 859 859 859 859 859 859 859 859 859 859 858 858 857 857 856 855 855 854 854 853 853 852 852 851 850 849 848 847 846 845 845 846 846 847 847 847 848 848 848 849 849 849 849 849 848 848 848 848 847 847 847 846 846 846 846
857 857 856 856 856 856 856 856 856 856 856 857 858 858 858 858 858 858 858 858 858 858 858 858 859 860 860 859 859 859 860 860 860 860 861 860 860 860 860 860 859 859 858 858 857 856 856 855 855 854 854 853 853 852 851 850 849 849 848 847 847 847 847 848 848 848 849 849 849 849 849 849 849 849 848 848 847 847 847 847 847 847 846 846 846
858 858 857 857 857 857 857 857 857 857 857 857 858 858 857 857 857 857 857 857 857 857 858 859 859 860 860 860 860 860 860 861 861 861 861 861 861 861 860 860 860 860 859 858 858 857 857 856 856 855 855 854 854 853 852 851 851 850 849 849 849 849 849 849 849 849 850 850 850 850 850 849 849 849 848 848 847 847 847 847 847 846 846 846 846
859 858 858 858 858 857 857 857 857 857 857 857 858 858 857 857 856 856 856 856 855 856 857 858 859 860 860 860 860 861 861 861 861 862 861 861 861 861 861 860 860 860 860 859 859 858 857 857 856 856 855 855 854 853 853 852 852 851 851 850 850 850 850 850 850 850 850 850 850 850 849 849 849 849 848 848 848 847 847 847 846 846 846 846 846
858 858 858 858 858 858 857 857 857 857 857 857 857 857 857 857 856 856 855 855 855 855 855 856 858 859 860 861 861 861 861 862 862 862 862 861 861 861 861 861 861 861 860 860 860 859 858 857 857 856 855 855 854 854 853 853 852 852 851 851 851 851 851 851 851 851 850 850 850 849 849 849 849 849 848 848 848 848 847 847 847 847 846 846 846
858 858 858 858 858 858 858 857 857 857 857 857 858 858 858 858 857 856 856 855 855 855 855 855 856 858 859 860 861 861 861 861 862 862 861 861 861 861 861 861 861 861 861 861 860 860 859 858 857 856 856 855 855 854 854 853 853 852 852 851 851 851 851 851 851 851 850 850 850 849 849 849 849 848 848 848 848 848 848 848 848 847 847 847 847